Погода в Питерборо

Великобритания     52°33′56″N   0°14′45″E
темп.,
°C
ветер,
м/с
пор.,
м/с
влажн.,
%
обл.,
%
осадки,
мм/ч
давл.,
гПа
погр.,
м
13 мая, чт
чт1301:00+7юв3590100 0.1 100987
04:00+7в3491100 0.0 100874
07:00+8св3890100 0.1 1007242
10:00+12всв4783100 0.1 1007550
13:00+14в687596 2.1 10061339
16:00+12в488499 2.1 1006364
19:00+11в3689100 4.0 1007279
22:00+9св3595100 0.6 1009138
14 мая, пт
пт1401:00+7св2496100 1.1 1009114
04:00+7с379796 0.8 1009194
07:00+7с489698 0.9 1009286
10:00+11ссв457778 0.0 1010974
13:00+12ссв336994 0.1 1010905
16:00+13св337187 0.4 1009893
19:00+11всв348399 0.7 1008240
22:00+8в359180 0.0 1008106
15 мая, сб
сб1501:00+6юв3797100 0.0 1006160
04:00+7юв3797100 0.1 1004234
07:00+8ююв2597100 0.6 1003240
10:00+11юз347692 0.3 1002869
13:00+11ююз4481100 0.8 1001753
16:00+11ююз4580100 0.2 1001688
19:00+11юз458214 0.4 1001617
22:00+8ю369436 0.3 1001102
16 мая, вс
вс1601:00+6ююз499659 0.4 1001182
04:00+5юз499748 0.0 1000187
07:00+7ююз4894100 0.0 1000244
10:00+12юз687599 0.0 999947
13:00+13ююз6873100 0.7 9981454
16:00+13ююз6984100 2.2 9971357
19:00+11ююз51091100 3.3 996725
22:00+9ю4996100 1.4 996458
17 мая, пн
пн1701:00+8ю499798 2.5 995316
04:00+8ю2397100 0.3 995125
07:00+9зсз369667 1.9 997270
10:00+12з568746 0.5 998716
13:00+11з81188100 3.4 1000939
16:00+11з7118572 0.3 1001648
19:00+11з7118650 0.6 1002834
22:00+8з5129571 0.3 1005403